Regional Weather Roundup
Issued by NWS Sterling, VA

Home | Current Version | Previous Version | Text Only | Print | Product List | Glossary On
Versions: 1 2 3 4 5 6 7 8 9 10 11 12 13 14 15 16 17 18 19 20 21 22 23 24 25 26 27 28 29 30 31 32 33 34 35 36 37 38 39 40 41 42 43 44 45 46 47 48 49 50
000
ASUS41 KLWX 261110
RWRLWX

REGIONAL WEATHER ROUNDUP
NATIONAL WEATHER SERVICE BALTIMORE MD/WASHINGTON DC
600 AM EST WED NOV 26 2014

Note: "FAIR" indicates few or no clouds below 12,000 feet
with no significant weather and/or obstructions to visibility.
 TC=TEMPERATURE CELSIUS

 * =Non NWS site. Station does not report precipitation (e.g. rain,
    snow, etc.), thunder, or fog.

DCZ001-MDZ009-015-VAZ040>042-051-053>054-261200-
WASHINGTON METRO

CITY           SKY/WX    TMP DP  RH WIND       PRES   REMARKS
WASHINGTON NAT RAIN      47  41  80 NE6       30.10R
DULLES         RAIN      40  38  93 N6        30.10R FOG
ANDREWS AFB    RAIN      43  41  93 NE6       30.07R
FT BELVOIR     LGT RAIN  45  43  93 VRB1      30.09R FOG
QUANTICO       RAIN      45  41  86 NE6       30.09R FOG
COLLEGE PARK*  CLOUDY    45  43  93 CALM      30.10R
LEESBURG*      RAIN      41  39  93 N9        30.10R
MANASSAS*      CLOUDY    43  41  93 N6        30.09R
GAITHERSBURG*  CLOUDY    39  36  87 CALM      30.12R

$$

MDZ006>007-011-014-261200-
BALTIMORE METRO

CITY           SKY/WX    TMP DP  RH WIND       PRES   REMARKS
BWI AIRPORT    RAIN      42  38  85 N3        30.10R
MD SCIENCE CTR   N/A     44  39  82 MISG      30.12R
MARTIN STATE   RAIN      45  41  87 CALM      30.12R
ANNAPOLIS      LGT RAIN  44  39  82 NE3       30.10R
FORT MEADE*    CLOUDY    43  39  87 CALM      30.12R

$$

MDZ012-015-019>023-261200-
MARYLAND EASTERN SHORE

CITY           SKY/WX    TMP DP  RH WIND       PRES   REMARKS
OCEAN CITY     LGT RAIN  45  42  89 NE15G23   30.03F FOG
SALISBURY      LGT RAIN  46  43  89 NE12      30.03F FOG
BAY BRIDGE AP* LGT RAIN  43  41  93 CALM      30.10S
CAMBRIDGE*     CLOUDY    45  41  87 NE6       30.05F
EASTON*        LGT RAIN  45  45 100 E7        30.11F FOG

$$

MDZ017>025-261200-
SOUTHERN MARYLAND

CITY           SKY/WX    TMP DP  RH WIND       PRES   REMARKS
PATUXENT RIVER LGT RAIN  44  41  89 NE13      30.06R FOG
ST INIGOES     LGT RAIN  45  40  82 NE13G20   30.04S
LEONARDTOWN*   CLOUDY    43  41  93 CALM      30.07F

$$

MDZ003>005-261200-
NORTH CENTRAL MARYLAND

CITY           SKY/WX    TMP DP  RH WIND       PRES   REMARKS
FREDERICK*     NOT AVBL
HAGERSTOWN APT LGT RAIN  41  32  70 N9        30.07F
WESTMINSTER*   LGT RAIN  39  34  81 N8        30.08S

$$

MDZ501>502-261200-
WESTERN MARYLAND

CITY           SKY/WX    TMP DP  RH WIND       PRES   REMARKS
OAKLAND*       CLOUDY    30  30 100 E10       29.97F WCI  21
CUMBERLAND*    CLOUDY    36  30  80 CALM      30.14F

$$

VAZ025>031-261200-
SHENANDOAH VALLEY

CITY           SKY/WX    TMP DP  RH WIND       PRES   REMARKS
WINCHESTER*    RAIN      39  34  81 CALM      30.09R
FRONT ROYAL*   CLOUDY    36  36 100 CALM      30.08S
LURAY*         RAIN      37  37 100 N8        30.06S
NEW MARKET*    CLOUDY    38  36  92 N3        30.06R
STAUNTON*      RAIN      38  36  89 N8        30.05F
WAYNESBORO*    CLOUDY    37  36  96 N7        30.02F

$$

WVZ021-048>050-054>055-261200-
EASTERN WEST VIRGINIA PANHANDLE

CITY           SKY/WX    TMP DP  RH WIND       PRES   REMARKS
MARTINSBURG    LGT RAIN  40  33  76 N6        30.09R
PETERSBURG*    LGT SNOW  34  31  90 N3        30.09F VSB 1

$$

VAZ036>039-050-261200-
CENTRAL FOOTHILLS

CITY           SKY/WX    TMP DP  RH WIND       PRES   REMARKS
CHARLOTTESVILL RAIN      44  42  93 NE7       30.04R FOG
CULPEPER*      RAIN      45  43  93 N3        30.08R
ORANGE*        RAIN      43  43 100 NE3       30.10R
GORDONSVILLE*  CLOUDY    42  42  98 CALM      30.07R FOG
WARRENTON*     RAIN      44  44 100 NE7       30.07R

$$

VAZ055>057-261200-
NORTH AND CENTRAL PIEDMONT

CITY           SKY/WX    TMP DP  RH WIND       PRES   REMARKS
FREDERICKSBRG* RAIN      45  45 100 NE6       30.06R
STAFFORD*      RAIN      43  43 100 NE3       30.11R

$$

NCZ024-NYZ072-PAZ021-071-VAZ022-071-261200-
OTHER REGIONAL OBSERVATIONS

CITY           SKY/WX    TMP DP  RH WIND       PRES   REMARKS
NEW YORK CITY  CLOUDY    46  31  55 NE8       30.13F
PHILADELPHIA   LGT RAIN  47  34  60 NE9       30.11R
PITTSBURGH     CLOUDY    31  25  78 N6        30.06F
ROANOKE        RAIN      39  36  89 N9        30.05R
RICHMOND       RAIN      45  42  89 NE13      30.02S FOG
RALEIGH        RAIN      48  45  89 N10       29.91R VSB 1

$$

ANZ530>537-261200-
MARINE OBSERVATIONS

STATION/POSITION TIME  TEMP    WIND        PRES
                       AIR SEA DIR/SP/G
                 (UTC) (F)     (DEG/KT/KT) (MB)
THOMAS PT LIGHT  1100   44 48   80/ 10/ 11 1019.9F
BALT KEY BRIDGE  1100   44      40/  6/  7 1019.0R
COVE POINT       1100   44      60/ 13/ 15 1017.6F
LEWISETTA        1100   45 50   70/ 20/ 24 1016.9R
SOLOMONS ISLAND  1100      50                N/A
PINEY POINT      1100           60/  9/ 11   N/A

$$



USA.gov is the U.S. government's official web portal to all federal, state and local government web resources and services.